Location: Newark
(44.1667°N, 8.2500°E)
Time: 09:45:05
(UTC+00:00)

Explorer 11/Cluster Stage 4 - Pass Details

Date: 22 December 2019
Orbit: 467 x 1259 km, 28.8° (Epoch: 25 January)

Event Time Altitude Azimuth Distance (km) Brightness Sun altitude
Exits shadow 03:13:25 10° 166° (SSE) 3,046 9.6 -39.4°
Maximum altitude 03:15:19 11° 151° (SSE) 3,017 9.7 -39.1°
Drops below altitude 10° 03:17:19 10° 137° (SE) 3,145 10.0 -38.7°
Sets 03:23:08 0° 106° (ESE) 4,192 11.2 -37.7°
